{"data":{"norad_id":59307,"epoch":"2026-05-25T01:39:12.323232Z","epoch_age_seconds":79285,"freshness":"FRESH","line1":"1 59307U 24056M   26145.06889263 -.00000815  00000+0 -20104-4 0  9997","line2":"2 59307  42.9995 159.5204 0001214 278.5306  81.5408 15.27569749122836","mean_motion":15.27569749,"eccentricity":0.0001214,"inclination_deg":42.9995,"raan_deg":159.5204,"arg_perigee_deg":278.5306,"mean_anomaly_deg":81.5408,"bstar":-2.0104e-5,"rev_number":12283,"period_min":94.267381305677,"perigee_km":482.24683967461,"apogee_km":483.91274311156,"semimajor_km":6861.2167913931,"source":"CELESTRAK","updated_at":"2026-05-25T13:38:18.899976Z"}}